Location: Apeadero de Los Molinos-Guadarrama
(40.7091°N, 4.0689°W)
Time: 12:51:42
(UTC+00:00)

Cosmos 2369 Rocket - Pass Details

Date: 14 May 2021
Orbit: 827 x 854 km, 71.0° (Epoch: 18 June)

Event Time Altitude Azimuth Distance (km) Brightness Sun altitude
Exits shadow 21:30:35 14° 80° (E) 2,199 4.1 -19.6°
Drops below altitude 10° 21:32:08 10° 65° (ENE) 2,452 4.5 -19.7°
Sets 21:35:39 0° 43° (NE) 3,398 5.4 -20.2°
